Location: Lane
(33.5226°N, 79.8788°W)
Time: 11:48:07
(UTC+00:00)

Explorer 7 - Pass Details

Date: 12 October 2022
Orbit: 481 x 665 km, 50.3° (Epoch: 26 November)

Event Time Altitude Azimuth Distance (km) Brightness Sun altitude
Rises 14:57:15 0° 304° (NW) 2,995 10.1 38.8°
Reaches altitude 10° 15:01:56 10° 345° (NNW) 2,090 9.4 39.5°
Maximum altitude 15:02:48 10° 355° (N) 2,060 9.5 39.6°
Drops below altitude 10° 15:03:40 10° 6° (N) 2,088 9.5 39.7°
Sets 15:08:20 0° 47° (NE) 2,982 10.5 40.3°
